Location: Unspecified
(48.2082°N, 0.0000°E)
Time: 17:38:58
(UTC+00:00)

Vanguard 1 - Pass Details

Date: 02 July 2019
Orbit: 653 x 3830 km, 34.3° (Epoch: 17 July)

Event Time Altitude Azimuth Distance (km) Brightness Sun altitude
Rises 04:29:46 0° 271° (W) 7,619 14.1 2.7°
Reaches altitude 10° 04:35:58 10° 265° (W) 6,233 13.6 3.6°
Maximum altitude 04:51:12 36° 209° (SSW) 3,237 12.4 5.8°
Drops below altitude 10° 05:00:30 10° 147° (SSE) 3,802 13.2 7.1°
Sets 05:03:16 0° 138° (SE) 4,442 13.6 7.6°
